Tanana, AK

11:12 AM AKDT on September 25, 2017 (GMT -0800)
Calhoun Memorial

Weather History for PATA - August, 2012

Change the Weather History Date:

Saturday, August 18, 2012

  Actual Average Record
Temperature  
Mean Temperature 59 °F -  
Max Temperature 64 °F 64 °F 82 °F (2004)
Min Temperature 54 °F 44 °F 28 °F (1981)
Degree Days  
Heating Degree Days 6    
Growing Degree Days 9 (Base 50)    
Moisture  
Dew Point 47 °F    
Average Humidity 67    
Maximum Humidity 83    
Minimum Humidity 50    
Precipitation  
Precipitation 0.00 in - - ()
Sea Level Pressure  
Sea Level Pressure 29.70 in    
Wind  
Wind Speed 5 mph (ESE)    
Max Wind Speed 10 mph    
Max Gust Speed 16 mph    
Visibility 10 miles    
Events Rain    
Averages and records for this station are not official NWS values.
T = Trace of Precipitation, MM = Missing Value Source: NWS Daily Summary

Daily Weather History Graph

Daily Weather History Graph

Search for Another Location

Airport or City:

Trip Planner

Search our weather history database for the weather conditions in past years. The results will help you decide how hot, cold, wet, or windy it might be!

Date:

Astronomy

Aug. 18, 2012 Rise Set
Actual Time 6:04 AM AKDT 10:17 PM AKDT
Civil Twilight 4:58 AM AKDT 11:22 PM AKDT
Nautical Twilight 2:44 AM AKDT 1:38 AM AKDT
Astronomical Twilight Sun does not set Sun does not set
Moon 8:23 AM AKDT (8/18) 9:26 PM AKDT (8/18)
Length of Visible Light 18h 24m
Length of Day
16h 12m
New Moon, 2% of the Moon is Illuminated
Aug 18
New Moon
Aug 24
First Quarter
Aug 31
Full
Sep 8
Last Quarter
Sep 15
New

Hourly Weather History & Observations

Time (AKDT) Temp. Dew Point Humidity Pressure Visibility Wind Dir Wind Speed Gust Speed Precip Events Conditions
12:52 AM 54.0 °F 48.9 °F 83% 29.76 in 10.0 mi Calm Calm - N/A   Overcast
1:52 AM 55.9 °F 48.9 °F 77% 29.76 in 10.0 mi SE 8.1 mph - N/A   Overcast
2:52 AM 55.9 °F 48.9 °F 77% 29.76 in 10.0 mi ESE 5.8 mph - N/A   Overcast
3:52 AM 55.9 °F 48.0 °F 75% 29.75 in 10.0 mi ESE 6.9 mph - N/A   Overcast
4:52 AM 55.0 °F 48.0 °F 77% 29.75 in 10.0 mi SE 4.6 mph - N/A   Overcast
5:52 AM 55.0 °F 46.0 °F 72% 29.75 in 10.0 mi ESE 4.6 mph - N/A   Overcast
6:52 AM 55.0 °F 46.9 °F 74% 29.75 in 10.0 mi SE 4.6 mph - N/A   Mostly Cloudy
7:52 AM 54.0 °F 46.9 °F 77% 29.74 in 10.0 mi East 5.8 mph - N/A   Mostly Cloudy
8:52 AM 55.9 °F 48.0 °F 75% 29.74 in 10.0 mi East 8.1 mph - N/A   Mostly Cloudy
9:52 AM 57.9 °F 46.9 °F 67% 29.73 in 10.0 mi ESE 8.1 mph - N/A   Mostly Cloudy
10:52 AM 60.1 °F 48.0 °F 64% 29.73 in 10.0 mi ESE 8.1 mph - N/A   Mostly Cloudy
11:52 AM 62.1 °F 46.9 °F 58% 29.71 in 10.0 mi ESE 9.2 mph - N/A   Mostly Cloudy
12:52 PM 62.1 °F 46.9 °F 58% 29.71 in 9.0 mi East 10.4 mph - N/A   Mostly Cloudy
1:52 PM 64.9 °F 46.9 °F 52% 29.68 in 10.0 mi ESE 9.2 mph - N/A   Mostly Cloudy
2:52 PM 64.9 °F 46.0 °F 50% 29.68 in 10.0 mi ESE 6.9 mph - N/A   Mostly Cloudy
3:52 PM 64.0 °F 46.9 °F 54% 29.67 in 10.0 mi ESE 8.1 mph - N/A   Overcast
4:52 PM 63.0 °F 46.0 °F 54% 29.65 in 8.0 mi ESE 8.1 mph - N/A   Overcast
5:52 PM 64.0 °F 45.0 °F 50% 29.64 in 10.0 mi East 6.9 mph - N/A   Overcast
6:52 PM 63.0 °F 46.0 °F 54% 29.63 in 10.0 mi East 4.6 mph - N/A   Overcast
7:52 PM 62.1 °F 50.0 °F 65% 29.62 in 10.0 mi Calm Calm - N/A   Overcast
8:52 PM 60.1 °F 53.1 °F 78% 29.62 in 8.0 mi West 4.6 mph - N/A   Overcast
9:52 PM 57.9 °F 45.0 °F 62% 29.63 in 10.0 mi WNW 6.9 mph 16.1 mph N/A   Overcast
10:52 PM 55.9 °F 46.9 °F 72% 29.64 in 10.0 mi Variable 3.5 mph - 0.00 in Rain Light Rain
11:52 PM 54.0 °F 46.9 °F 77% 29.65 in 10.0 mi Calm Calm - 0.00 in   Overcast